| time (UTC) | temp F | wind direction | speed MPH | gust MPH | rain 1hr in | rain 24hr in | rain mn in | humidity % | barometer mb |
| 20260506062506 | 62 | 192 | 5.0 | 9.0 | 0.00 | 0.00 | 0.00 | 86 | 1013.6 |
| 20260506062005 | 62 | 214 | 3.0 | 8.0 | 0.00 | 0.00 | 0.00 | 87 | 1013.6 |
| 20260506061507 | 62 | 199 | 6.0 | 10.0 | 0.00 | 0.00 | 0.00 | 87 | 1013.6 |
| 20260506061006 | 62 | 201 | 5.0 | 9.0 | 0.00 | 0.00 | 0.00 | 87 | 1013.6 |
| 20260506060505 | 62 | 191 | 4.0 | 9.0 | 0.00 | 0.00 | 0.00 | 87 | 1013.5 |
| 20260506051007 | 60 | 215 | 5.0 | 12.0 | 0.00 | 0.00 | 0.00 | 88 | 1013.2 |
| 20260506050505 | 60 | 202 | 3.0 | 7.0 | 0.00 | 0.00 | 0.00 | 88 | 1013.1 |
| 20260506045007 | 60 | 215 | 4.0 | 10.0 | 0.00 | 0.00 | 0.00 | 88 | 1013.1 |
| 20260506044507 | 60 | 208 | 5.0 | 10.0 | 0.00 | 0.00 | 0.00 | 88 | 1013.1 |
| 20260506044006 | 60 | 203 | 4.0 | 7.0 | 0.00 | 0.00 | 0.00 | 88 | 1013.1 |
| 20260506043506 | 60 | 194 | 4.0 | 8.0 | 0.00 | 0.00 | 0.00 | 88 | 1013.0 |
| 20260506043005 | 60 | 200 | 5.0 | 8.0 | 0.00 | 0.00 | 0.00 | 88 | 1013.0 |
| 20260506042505 | 60 | 206 | 1.0 | 8.0 | 0.00 | 0.00 | 0.00 | 88 | 1012.9 |
| 20260506042007 | 60 | 200 | 2.0 | 7.0 | 0.00 | 0.00 | 0.00 | 88 | 1012.8 |
| 20260506041507 | 60 | 194 | 2.0 | 5.0 | 0.00 | 0.00 | 0.00 | 88 | 1012.9 |
| 20260506041010 | 60 | 211 | 3.0 | 6.0 | 0.00 | 0.00 | 0.00 | 88 | 1013.0 |
| 20260506040507 | 60 | 215 | 5.0 | 7.0 | 0.00 | 0.00 | 0.00 | 88 | 1013.0 |
| 20260506040007 | 60 | 203 | 5.0 | 7.0 | 0.00 | 0.00 | 0.00 | 88 | 1013.0 |
| 20260506035507 | 60 | 209 | 5.0 | 8.0 | 0.00 | 0.00 | 0.00 | 88 | 1013.0 |
| 20260506035007 | 60 | 217 | 5.0 | 9.0 | 0.00 | 0.00 | 0.00 | 88 | 1013.0 |
| 20260506034510 | 60 | 208 | 5.0 | 8.0 | 0.00 | 0.00 | 0.00 | 88 | 1012.9 |
| 20260506034005 | 59 | 210 | 3.0 | 8.0 | 0.00 | 0.00 | 0.00 | 88 | 1012.9 |
| 20260506033506 | 59 | 209 | 5.0 | 7.0 | 0.00 | 0.00 | 0.00 | 88 | 1013.0 |
| 20260506033007 | 59 | 203 | 3.0 | 8.0 | 0.00 | 0.00 | 0.00 | 88 | 1013.0 |
| 20260506032507 | 59 | 200 | 4.0 | 8.0 | 0.00 | 0.00 | 0.00 | 88 | 1013.0 |
| 20260506032007 | 59 | 196 | 3.0 | 7.0 | 0.00 | 0.00 | 0.00 | 88 | 1013.0 |
| 20260506031507 | 59 | 205 | 3.0 | 6.0 | 0.00 | 0.00 | 0.00 | 88 | 1013.0 |
| 20260506030505 | 59 | 208 | 3.0 | 5.0 | 0.00 | 0.00 | 0.00 | 88 | 1013.0 |
| 20260506030005 | 59 | 193 | 2.0 | 5.0 | 0.00 | 0.00 | 0.00 | 88 | 1013.1 |
| 20260506025507 | 59 | 212 | 2.0 | 3.0 | 0.00 | 0.00 | 0.00 | 88 | 1013.0 |
| 20260506025012 | 59 | 193 | 2.0 | 3.0 | 0.00 | 0.00 | 0.00 | 88 | 1013.1 |
| 20260506024507 | 59 | 194 | 2.0 | 3.0 | 0.00 | 0.00 | 0.00 | 88 | 1013.1 |
| 20260506023507 | 59 | 251 | 0.0 | 1.0 | 0.00 | 0.00 | 0.00 | 88 | 1013.1 |
| 20260506022505 | 59 | 215 | 1.0 | 3.0 | 0.00 | 0.00 | 0.00 | 88 | 1013.2 |
| 20260506022007 | 59 | 197 | 2.0 | 5.0 | 0.00 | 0.00 | 0.00 | 88 | 1013.2 |
| 20260506021506 | 59 | 212 | 3.0 | 5.0 | 0.00 | 0.00 | 0.00 | 88 | 1013.2 |
| 20260506015508 | 59 | 208 | 2.0 | 5.0 | 0.00 | 0.00 | 0.00 | 88 | 1013.3 |
| 20260506015005 | 59 | 203 | 3.0 | 7.0 | 0.00 | 0.00 | 0.00 | 88 | 1013.3 |
| 20260506014506 | 59 | 202 | 3.0 | 7.0 | 0.00 | 0.00 | 0.00 | 88 | 1013.2 |
| 20260506014005 | 59 | 206 | 2.0 | 6.0 | 0.00 | 0.00 | 0.00 | 88 | 1013.2 |
| 20260506013505 | 59 | 195 | 3.0 | 6.0 | 0.00 | 0.00 | 0.00 | 88 | 1013.3 |
| 20260506012506 | 59 | 179 | 1.0 | 5.0 | 0.00 | 0.00 | 0.00 | 88 | 1013.2 |
| 20260506012008 | 59 | 177 | 1.0 | 6.0 | 0.00 | 0.00 | 0.00 | 88 | 1013.2 |
| 20260506011504 | 59 | 174 | 1.0 | 3.0 | 0.00 | 0.00 | 0.00 | 88 | 1013.2 |
| 20260506011005 | 59 | 196 | 2.0 | 5.0 | 0.00 | 0.00 | 0.00 | 88 | 1013.2 |
| 20260506010506 | 59 | 180 | 1.0 | 3.0 | 0.00 | 0.00 | 0.00 | 88 | 1013.2 |
| 20260506010010 | 59 | 190 | 2.0 | 5.0 | 0.00 | 0.00 | 0.00 | 88 | 1013.2 |
| 20260506005007 | 59 | 206 | 2.0 | 3.0 | 0.00 | 0.00 | 0.00 | 88 | 1013.3 |
| 20260506004505 | 59 | 200 | 1.0 | 3.0 | 0.00 | 0.00 | 0.00 | 88 | 1013.3 |
| 20260506004011 | 59 | 195 | 1.0 | 3.0 | 0.00 | 0.00 | 0.00 | 88 | 1013.4 |
| 20260506003006 | 59 | 210 | 2.0 | 3.0 | 0.00 | 0.00 | 0.00 | 88 | 1013.5 |
| 20260506002506 | 59 | 207 | 1.0 | 3.0 | 0.00 | 0.00 | 0.00 | 88 | 1013.5 |
| 20260506002008 | 59 | 210 | 2.0 | 5.0 | 0.00 | 0.00 | 0.00 | 88 | 1013.5 |
| 20260506001507 | 60 | 221 | 2.0 | 5.0 | 0.00 | 0.00 | 0.00 | 88 | 1013.6 |
| 20260506001011 | 60 | 204 | 2.0 | 6.0 | 0.00 | 0.00 | 0.00 | 88 | 1013.6 |
| 20260506000506 | 60 | 187 | 2.0 | 6.0 | 0.00 | 0.00 | 0.00 | 88 | 1013.6 |
| 20260506000006 | 60 | 188 | 2.0 | 5.0 | 0.00 | 0.00 | 0.00 | 88 | 1013.6 |
| 20260505235506 | 60 | 186 | 1.0 | 5.0 | 0.00 | 0.00 | 0.00 | 88 | 1013.7 |
| 20260505235006 | 60 | 208 | 1.0 | 5.0 | 0.00 | 0.00 | 0.00 | 88 | 1013.8 |
| 20260505234006 | 60 | 201 | 3.0 | 7.0 | 0.00 | 0.00 | 0.00 | 88 | 1013.8 |
| 20260505233506 | 60 | 219 | 3.0 | 8.0 | 0.00 | 0.00 | 0.00 | 88 | 1013.8 |
| 20260505233008 | 60 | 214 | 3.0 | 6.0 | 0.00 | 0.00 | 0.00 | 88 | 1013.9 |
| 20260505232505 | 60 | 210 | 3.0 | 6.0 | 0.00 | 0.00 | 0.00 | 88 | 1013.9 |
| 20260505232007 | 60 | 208 | 2.0 | 7.0 | 0.00 | 0.00 | 0.00 | 88 | 1014.0 |
| 20260505231506 | 60 | 205 | 2.0 | 6.0 | 0.00 | 0.00 | 0.00 | 88 | 1014.0 |
| 20260505231005 | 60 | 210 | 3.0 | 5.0 | 0.00 | 0.00 | 0.00 | 88 | 1014.0 |
| 20260505230505 | 60 | 206 | 2.0 | 6.0 | 0.00 | 0.00 | 0.00 | 88 | 1014.0 |
| 20260505230007 | 60 | 206 | 3.0 | 6.0 | 0.00 | 0.00 | 0.00 | 88 | 1014.0 |
| 20260505225507 | 60 | 204 | 1.0 | 6.0 | 0.00 | 0.00 | 0.00 | 88 | 1014.1 |
| 20260505225006 | 60 | 209 | 2.0 | 5.0 | 0.00 | 0.00 | 0.00 | 88 | 1014.1 |
| 20260505224506 | 60 | 201 | 2.0 | 3.0 | 0.00 | 0.00 | 0.00 | 88 | 1014.1 |
| 20260505223507 | 60 | 215 | 3.0 | 6.0 | 0.00 | 0.00 | 0.00 | 88 | 1014.0 |
| 20260505223008 | 60 | 203 | 5.0 | 6.0 | 0.00 | 0.00 | 0.00 | 88 | 1014.1 |
| 20260505222506 | 60 | 201 | 3.0 | 7.0 | 0.00 | 0.00 | 0.00 | 88 | 1014.1 |
| 20260505222007 | 60 | 194 | 3.0 | 6.0 | 0.00 | 0.00 | 0.00 | 88 | 1014.2 |
| 20260505221006 | 60 | 190 | 2.0 | 5.0 | 0.00 | 0.00 | 0.00 | 88 | 1014.3 |
| 20260505220511 | 60 | 214 | 2.0 | 6.0 | 0.00 | 0.00 | 0.00 | 88 | 1014.3 |
| 20260505220007 | 60 | 203 | 3.0 | 5.0 | 0.00 | 0.00 | 0.00 | 88 | 1014.4 |
| 20260505215505 | 60 | 202 | 3.0 | 6.0 | 0.00 | 0.00 | 0.00 | 88 | 1014.4 |
| 20260505215007 | 60 | 202 | 3.0 | 6.0 | 0.00 | 0.00 | 0.00 | 87 | 1014.4 |
| 20260505214506 | 60 | 208 | 4.0 | 6.0 | 0.00 | 0.00 | 0.00 | 87 | 1014.4 |
| 20260505214005 | 60 | 176 | 3.0 | 6.0 | 0.00 | 0.00 | 0.00 | 87 | 1014.4 |
| 20260505213007 | 60 | 202 | 3.0 | 8.0 | 0.00 | 0.00 | 0.00 | 87 | 1014.5 |
| 20260505212513 | 60 | 203 | 5.0 | 8.0 | 0.00 | 0.00 | 0.00 | 87 | 1014.5 |
| 20260505211507 | 60 | 203 | 4.0 | 8.0 | 0.00 | 0.00 | 0.00 | 87 | 1014.6 |
| 20260505211007 | 60 | 195 | 3.0 | 9.0 | 0.00 | 0.00 | 0.00 | 87 | 1014.7 |
| 20260505210507 | 60 | 181 | 3.0 | 7.0 | 0.00 | 0.00 | 0.00 | 87 | 1014.8 |
| 20260505210008 | 60 | 204 | 3.0 | 7.0 | 0.00 | 0.00 | 0.00 | 86 | 1014.8 |
| 20260505205506 | 60 | 207 | 3.0 | 8.0 | 0.00 | 0.00 | 0.00 | 86 | 1014.8 |
| 20260505204507 | 60 | 206 | 5.0 | 7.0 | 0.00 | 0.00 | 0.00 | 86 | 1014.9 |
| 20260505204007 | 60 | 216 | 4.0 | 8.0 | 0.00 | 0.00 | 0.00 | 86 | 1014.9 |
| 20260505203508 | 60 | 196 | 3.0 | 6.0 | 0.00 | 0.00 | 0.00 | 85 | 1014.9 |
| 20260505202507 | 60 | 203 | 3.0 | 7.0 | 0.00 | 0.00 | 0.00 | 85 | 1015.0 |
| 20260505201507 | 60 | 200 | 4.0 | 7.0 | 0.00 | 0.00 | 0.00 | 84 | 1015.0 |
| 20260505201007 | 60 | 200 | 2.0 | 7.0 | 0.00 | 0.00 | 0.00 | 83 | 1015.1 |
| 20260505200507 | 60 | 212 | 3.0 | 6.0 | 0.00 | 0.00 | 0.00 | 82 | 1015.1 |
| 20260505200007 | 60 | 200 | 3.0 | 5.0 | 0.00 | 0.00 | 0.00 | 81 | 1015.0 |
| 20260505195507 | 60 | 206 | 2.0 | 6.0 | 0.00 | 0.00 | 0.00 | 81 | 1015.0 |
| 20260505195007 | 60 | 221 | 3.0 | 6.0 | 0.00 | 0.00 | 0.00 | 80 | 1014.9 |
| 20260505194505 | 60 | 207 | 3.0 | 6.0 | 0.00 | 0.00 | 0.00 | 79 | 1014.9 |
| 20260505194010 | 60 | 212 | 3.0 | 7.0 | 0.00 | 0.00 | 0.00 | 79 | 1014.8 |
| 20260505193506 | 61 | 213 | 4.0 | 7.0 | 0.00 | 0.00 | 0.00 | 78 | 1014.8 |
| 20260505193007 | 61 | 210 | 4.0 | 7.0 | 0.00 | 0.00 | 0.00 | 78 | 1014.8 |
| 20260505192506 | 61 | 213 | 3.0 | 7.0 | 0.00 | 0.00 | 0.00 | 77 | 1014.8 |
| 20260505192007 | 61 | 197 | 3.0 | 7.0 | 0.00 | 0.00 | 0.00 | 77 | 1014.7 |
| 20260505191507 | 61 | 202 | 2.0 | 3.0 | 0.00 | 0.00 | 0.00 | 76 | 1014.7 |
| 20260505190511 | 61 | 205 | 3.0 | 5.0 | 0.00 | 0.00 | 0.00 | 75 | 1014.8 |
| 20260505190005 | 61 | 192 | 1.0 | 3.0 | 0.00 | 0.00 | 0.00 | 75 | 1014.7 |
| 20260505185507 | 61 | 184 | 1.0 | 3.0 | 0.00 | 0.00 | 0.00 | 75 | 1014.7 |
| 20260505185007 | 61 | 185 | 2.0 | 5.0 | 0.00 | 0.00 | 0.00 | 75 | 1014.7 |
| 20260505184506 | 61 | 188 | 2.0 | 5.0 | 0.00 | 0.00 | 0.00 | 75 | 1014.6 |
| 20260505184010 | 61 | 212 | 3.0 | 7.0 | 0.00 | 0.00 | 0.00 | 74 | 1014.5 |
| 20260505183007 | 62 | 201 | 4.0 | 7.0 | 0.00 | 0.00 | 0.00 | 74 | 1014.5 |
| 20260505182504 | 62 | 207 | 3.0 | 6.0 | 0.00 | 0.00 | 0.00 | 73 | 1014.6 |
| 20260505182008 | 62 | 210 | 3.0 | 6.0 | 0.00 | 0.00 | 0.00 | 72 | 1014.5 |
| 20260505181507 | 62 | 215 | 4.0 | 7.0 | 0.00 | 0.00 | 0.00 | 71 | 1014.5 |
| 20260505181007 | 63 | 197 | 3.0 | 7.0 | 0.00 | 0.00 | 0.00 | 70 | 1014.5 |
| 20260505180505 | 63 | 209 | 4.0 | 7.0 | 0.00 | 0.00 | 0.00 | 69 | 1014.4 |
| 20260505180006 | 63 | 203 | 4.0 | 7.0 | 0.00 | 0.00 | 0.00 | 68 | 1014.5 |
| 20260505175506 | 63 | 210 | 3.0 | 8.0 | 0.00 | 0.00 | 0.00 | 67 | 1014.5 |
| 20260505175006 | 64 | 211 | 4.0 | 7.0 | 0.00 | 0.00 | 0.00 | 66 | 1014.5 |
| 20260505173507 | 64 | 220 | 3.0 | 8.0 | 0.00 | 0.00 | 0.00 | 68 | 1014.6 |
| 20260505173006 | 64 | 188 | 2.0 | 3.0 | 0.00 | 0.00 | 0.00 | 68 | 1014.6 |
| 20260505172505 | 65 | 197 | 2.0 | 3.0 | 0.00 | 0.00 | 0.00 | 68 | 1014.5 |
| 20260505172010 | 65 | 178 | 2.0 | 5.0 | 0.00 | 0.00 | 0.00 | 69 | 1014.6 |
| 20260505171505 | 65 | 213 | 4.0 | 7.0 | 0.00 | 0.00 | 0.00 | 68 | 1014.6 |
| 20260505171010 | 65 | 201 | 2.0 | 5.0 | 0.00 | 0.00 | 0.00 | 69 | 1014.7 |
| 20260505170505 | 65 | 180 | 2.0 | 6.0 | 0.00 | 0.00 | 0.00 | 68 | 1014.7 |
| 20260505170005 | 65 | 176 | 2.0 | 3.0 | 0.00 | 0.00 | 0.00 | 68 | 1014.6 |
| 20260505165507 | 66 | 189 | 1.0 | 3.0 | 0.00 | 0.00 | 0.00 | 67 | 1014.6 |
| 20260505165010 | 66 | 192 | 2.0 | 3.0 | 0.00 | 0.00 | 0.00 | 66 | 1014.6 |
| 20260505164505 | 66 | 203 | 3.0 | 6.0 | 0.00 | 0.00 | 0.00 | 65 | 1014.7 |
| 20260505164007 | 66 | 189 | 2.0 | 5.0 | 0.00 | 0.00 | 0.00 | 63 | 1014.7 |
| 20260505163506 | 66 | 183 | 2.0 | 3.0 | 0.00 | 0.00 | 0.00 | 62 | 1014.7 |
| 20260505162505 | 66 | 209 | 3.0 | 6.0 | 0.00 | 0.00 | 0.00 | 61 | 1014.7 |
| 20260505161505 | 67 | 206 | 4.0 | 7.0 | 0.00 | 0.00 | 0.00 | 60 | 1014.8 |
| 20260505160507 | 67 | 215 | 3.0 | 6.0 | 0.00 | 0.00 | 0.00 | 61 | 1015.0 |
| 20260505153010 | 68 | 171 | 3.0 | 7.0 | 0.00 | 0.00 | 0.00 | 59 | 1014.9 |
| 20260505152507 | 68 | 178 | 2.0 | 5.0 | 0.00 | 0.00 | 0.00 | 59 | 1014.9 |
| 20260505151506 | 68 | 184 | 2.0 | 5.0 | 0.00 | 0.00 | 0.00 | 59 | 1015.0 |
| 20260505151007 | 68 | 171 | 1.0 | 3.0 | 0.00 | 0.00 | 0.00 | 57 | 1015.1 |
| 20260505150506 | 68 | 200 | 2.0 | 3.0 | 0.00 | 0.00 | 0.00 | 56 | 1015.1 |
| 20260505140506 | 68 | 51 | 2.0 | 3.0 | 0.00 | 0.00 | 0.00 | 55 | 1015.6 |
| 20260505125007 | 70 | 210 | 2.0 | 6.0 | 0.00 | 0.00 | 0.00 | 50 | 1015.9 |
| 20260505124505 | 70 | 201 | 1.0 | 5.0 | 0.00 | 0.00 | 0.00 | 49 | 1015.8 |
| 20260505124005 | 70 | 186 | 2.0 | 3.0 | 0.00 | 0.00 | 0.00 | 47 | 1015.9 |
| 20260505123510 | 70 | 220 | 2.0 | 3.0 | 0.00 | 0.00 | 0.00 | 47 | 1015.9 |
| 20260505123006 | 70 | 180 | 4.0 | 8.0 | 0.00 | 0.00 | 0.00 | 44 | 1015.9 |
| 20260505122508 | 70 | 187 | 3.0 | 8.0 | 0.00 | 0.00 | 0.00 | 45 | 1015.9 |
| 20260505122008 | 70 | 210 | 5.0 | 10.0 | 0.00 | 0.00 | 0.00 | 44 | 1016.0 |
| 20260505121505 | 70 | 205 | 3.0 | 7.0 | 0.00 | 0.00 | 0.00 | 45 | 1015.9 |
| 20260505121007 | 70 | 201 | 5.0 | 9.0 | 0.00 | 0.00 | 0.00 | 45 | 1015.9 |
| 20260505120506 | 70 | 211 | 5.0 | 9.0 | 0.00 | 0.00 | 0.00 | 43 | 1015.9 |
| 20260505120006 | 70 | 211 | 6.0 | 12.0 | 0.00 | 0.00 | 0.00 | 42 | 1015.9 |
| 20260505115006 | 70 | 209 | 5.0 | 12.0 | 0.00 | 0.00 | 0.00 | 45 | 1016.0 |
| 20260505114505 | 70 | 207 | 6.0 | 12.0 | 0.00 | 0.00 | 0.00 | 46 | 1015.9 |
| 20260505114006 | 69 | 174 | 5.0 | 12.0 | 0.00 | 0.00 | 0.00 | 47 | 1015.9 |
| 20260505113006 | 70 | 213 | 6.0 | 10.0 | 0.00 | 0.00 | 0.00 | 48 | 1015.9 |
| 20260505112506 | 70 | 186 | 4.0 | 12.0 | 0.00 | 0.00 | 0.00 | 49 | 1015.9 |
| 20260505112007 | 70 | 182 | 7.0 | 13.0 | 0.00 | 0.00 | 0.00 | 48 | 1015.9 |
| 20260505111508 | 70 | 195 | 5.0 | 9.0 | 0.00 | 0.00 | 0.00 | 48 | 1015.9 |
| 20260505111006 | 70 | 208 | 5.0 | 9.0 | 0.00 | 0.00 | 0.00 | 46 | 1016.0 |
| 20260505110507 | 70 | 184 | 5.0 | 10.0 | 0.00 | 0.00 | 0.00 | 44 | 1016.0 |
| 20260505101506 | 72 | 199 | 8.0 | 14.0 | 0.00 | 0.00 | 0.00 | 43 | 1015.7 |
| 20260505101011 | 72 | 184 | 6.0 | 13.0 | 0.00 | 0.00 | 0.00 | 46 | 1015.7 |
| 20260505100506 | 72 | 206 | 8.0 | 15.0 | 0.00 | 0.00 | 0.00 | 46 | 1015.7 |
| 20260505095506 | 73 | 182 | 6.0 | 13.0 | 0.00 | 0.00 | 0.00 | 44 | 1015.7 |
| 20260505095018 | 73 | 221 | 6.0 | 10.0 | 0.00 | 0.00 | 0.00 | 46 | 1015.7 |
| 20260505094506 | 73 | 179 | 5.0 | 10.0 | 0.00 | 0.00 | 0.00 | 48 | 1015.7 |
| 20260505094005 | 72 | 169 | 7.0 | 14.0 | 0.00 | 0.00 | 0.00 | 49 | 1015.7 |
| 20260505093507 | 72 | 211 | 5.0 | 14.0 | 0.00 | 0.00 | 0.00 | 51 | 1015.8 |
| 20260505092507 | 71 | 192 | 7.0 | 14.0 | 0.00 | 0.00 | 0.00 | 51 | 1016.0 |
| 20260505091506 | 72 | 213 | 9.0 | 14.0 | 0.00 | 0.00 | 0.00 | 49 | 1015.9 |
| 20260505091007 | 72 | 217 | 7.0 | 13.0 | 0.00 | 0.00 | 0.00 | 50 | 1015.9 |
| 20260505090508 | 72 | 197 | 9.0 | 14.0 | 0.00 | 0.00 | 0.00 | 52 | 1015.9 |
| 20260505090007 | 72 | 167 | 4.0 | 14.0 | 0.00 | 0.00 | 0.00 | 52 | 1015.8 |
| 20260505084007 | 70 | 211 | 6.0 | 14.0 | 0.00 | 0.00 | 0.00 | 53 | 1015.6 |
| 20260505083511 | 70 | 209 | 6.0 | 12.0 | 0.00 | 0.00 | 0.00 | 53 | 1015.7 |
| 20260505082007 | 70 | 200 | 8.0 | 12.0 | 0.00 | 0.00 | 0.00 | 53 | 1015.7 |
| 20260505081506 | 70 | 202 | 9.0 | 13.0 | 0.00 | 0.00 | 0.00 | 53 | 1015.7 |
| 20260505081006 | 70 | 191 | 5.0 | 12.0 | 0.00 | 0.00 | 0.00 | 53 | 1015.9 |
| 20260505080505 | 69 | 195 | 8.0 | 15.0 | 0.00 | 0.00 | 0.00 | 52 | 1015.9 |
| 20260505080010 | 69 | 192 | 7.0 | 14.0 | 0.00 | 0.00 | 0.00 | 54 | 1015.8 |
| 20260505075011 | 68 | 210 | 7.0 | 12.0 | 0.00 | 0.00 | 0.00 | 55 | 1015.8 |
| 20260505074505 | 68 | 209 | 7.0 | 12.0 | 0.00 | 0.00 | 0.00 | 54 | 1015.8 |
| 20260505073507 | 68 | 174 | 6.0 | 12.0 | 0.00 | 0.00 | 0.00 | 54 | 1015.8 |
| 20260505073005 | 68 | 210 | 7.0 | 12.0 | 0.00 | 0.00 | 0.00 | 54 | 1016.0 |
| 20260505072505 | 68 | 164 | 5.0 | 14.0 | 0.00 | 0.00 | 0.00 | 55 | 1016.1 |
| 20260505072006 | 67 | 196 | 7.0 | 14.0 | 0.00 | 0.00 | 0.00 | 54 | 1016.2 |
| 20260505071505 | 67 | 176 | 5.0 | 12.0 | 0.00 | 0.00 | 0.00 | 55 | 1016.1 |
| 20260505071007 | 66 | 167 | 7.0 | 14.0 | 0.00 | 0.00 | 0.00 | 55 | 1016.0 |
| 20260505070506 | 66 | 206 | 6.0 | 13.0 | 0.00 | 0.00 | 0.00 | 55 | 1016.1 |
| 20260505070006 | 66 | 218 | 6.0 | 12.0 | 0.00 | 0.00 | 0.00 | 56 | 1016.0 |